owner,sensor,date,latitude,longitude,vertical_datum,sea_water_temperature,qcFlag
BP,ioos:station:wmo:42907:1,2021-09-01T14:03:00Z,28.4401,-88.2729,17.3,27.7,11111222
BP,ioos:station:wmo:42907:1,2021-09-01T14:13:00Z,28.4401,-88.2729,17.3,27.8,11111222
BP,ioos:station:wmo:42907:1,2021-09-01T14:23:00Z,28.4401,-88.2729,17.3,27.8,11111222
BP,ioos:station:wmo:42907:1,2021-09-01T14:33:00Z,28.4401,-88.2729,17.2,27.8,11111222
BP,ioos:station:wmo:42907:1,2021-09-01T14:43:00Z,28.4401,-88.2729,17.3,27.8,11111222
BP,ioos:station:wmo:42907:1,2021-09-01T14:53:00Z,28.4401,-88.2729,17.3,27.8,11111222
BP,ioos:station:wmo:42907:1,2021-09-01T15:03:00Z,28.4401,-88.2729,17.3,27.8,11111222
BP,ioos:station:wmo:42907:1,2021-09-01T15:13:00Z,28.4401,-88.2729,17.2,27.7,11111222
BP,ioos:station:wmo:42907:1,2021-09-01T15:23:00Z,28.4401,-88.2729,17.1,27.7,11111222
BP,ioos:station:wmo:42907:1,2021-09-01T15:33:00Z,28.4401,-88.2729,17.0,27.7,11111222
BP,ioos:station:wmo:42907:1,2021-09-01T15:43:00Z,28.4401,-88.2729,16.9,27.7,11111222
BP,ioos:station:wmo:42907:1,2021-09-01T15:53:00Z,28.4401,-88.2729,17.0,27.7,11111222
BP,ioos:station:wmo:42907:1,2021-09-01T16:03:00Z,28.4401,-88.2729,17.1,27.7,11111222
BP,ioos:station:wmo:42907:1,2021-09-01T16:13:00Z,28.4401,-88.2729,17.2,27.7,11111222
BP,ioos:station:wmo:42907:1,2021-09-01T16:23:00Z,28.4401,-88.2729,17.2,27.7,11111222
BP,ioos:station:wmo:42907:1,2021-09-01T16:33:00Z,28.4401,-88.2729,17.2,27.7,11111222
BP,ioos:station:wmo:42907:1,2021-09-01T16:43:00Z,28.4401,-88.2729,17.2,27.7,11111222
BP,ioos:station:wmo:42907:1,2021-09-01T16:53:00Z,28.4401,-88.2729,17.2,27.7,11111222
BP,ioos:station:wmo:42907:1,2021-09-01T17:03:00Z,28.4401,-88.2729,17.2,27.7,11111222
BP,ioos:station:wmo:42907:1,2021-09-01T17:13:00Z,28.4401,-88.2729,17.2,27.7,11111222
BP,ioos:station:wmo:42907:1,2021-09-01T17:23:00Z,28.4401,-88.2729,17.3,27.7,11111222
BP,ioos:station:wmo:42907:1,2021-09-01T17:33:00Z,28.4401,-88.2729,17.3,27.7,11111222
BP,ioos:station:wmo:42907:1,2021-09-01T17:43:00Z,28.4401,-88.2729,17.2,27.7,11111222
BP,ioos:station:wmo:42907:1,2021-09-01T17:53:00Z,28.4401,-88.2729,17.1,27.7,11111222
BP,ioos:station:wmo:42907:1,2021-09-01T18:03:00Z,28.4401,-88.2729,17.2,27.7,11111222
BP,ioos:station:wmo:42907:1,2021-09-01T18:13:00Z,28.4401,-88.2729,17.2,27.7,11111222
BP,ioos:station:wmo:42907:1,2021-09-01T18:24:00Z,28.4401,-88.2729,17.2,27.7,11111222
BP,ioos:station:wmo:42907:1,2021-09-01T18:34:00Z,28.4401,-88.2729,17.2,27.7,11111222
BP,ioos:station:wmo:42907:1,2021-09-01T18:44:00Z,28.4401,-88.2729,17.2,27.7,11111222
BP,ioos:station:wmo:42907:1,2021-09-01T18:54:00Z,28.4401,-88.2729,17.2,27.8,11111222
BP,ioos:station:wmo:42907:1,2021-09-01T19:04:00Z,28.4401,-88.2729,17.2,27.8,11111222
BP,ioos:station:wmo:42907:1,2021-09-01T19:14:00Z,28.4401,-88.2729,17.2,27.8,11111222
BP,ioos:station:wmo:42907:1,2021-09-01T19:24:00Z,28.4401,-88.2729,17.2,27.8,11111222
BP,ioos:station:wmo:42907:1,2021-09-01T19:34:00Z,28.4401,-88.2729,17.2,27.8,11111222
BP,ioos:station:wmo:42907:1,2021-09-01T19:44:00Z,28.4401,-88.2729,17.2,27.8,11111222
BP,ioos:station:wmo:42907:1,2021-09-01T19:54:00Z,28.4401,-88.2729,17.2,27.8,11111222
BP,ioos:station:wmo:42907:1,2021-09-01T20:04:00Z,28.4401,-88.2729,17.2,27.8,11111222
BP,ioos:station:wmo:42907:1,2021-09-01T20:14:00Z,28.4401,-88.2729,17.2,27.8,11111222
BP,ioos:station:wmo:42907:1,2021-09-01T20:24:00Z,28.4401,-88.2729,17.2,27.8,11111222
BP,ioos:station:wmo:42907:1,2021-09-01T20:34:00Z,28.4401,-88.2729,17.3,27.8,11111222
BP,ioos:station:wmo:42907:1,2021-09-01T20:44:00Z,28.4401,-88.2729,17.3,27.8,11111222
BP,ioos:station:wmo:42907:1,2021-09-01T20:54:00Z,28.4401,-88.2729,17.3,27.8,11111222
BP,ioos:station:wmo:42907:1,2021-09-01T21:04:00Z,28.4401,-88.2729,17.2,27.8,11111222
BP,ioos:station:wmo:42907:1,2021-09-01T21:14:00Z,28.4401,-88.2729,17.1,27.8,11111222
BP,ioos:station:wmo:42907:1,2021-09-01T21:24:00Z,28.4401,-88.2729,17.1,27.8,11111222
BP,ioos:station:wmo:42907:1,2021-09-01T21:34:00Z,28.4401,-88.2729,17.2,27.8,11111222
BP,ioos:station:wmo:42907:1,2021-09-01T21:44:00Z,28.4401,-88.2729,17.3,27.8,11111222
BP,ioos:station:wmo:42907:1,2021-09-01T21:54:00Z,28.4401,-88.2729,17.3,27.8,11111222
BP,ioos:station:wmo:42907:1,2021-09-01T22:04:00Z,28.4401,-88.2729,17.3,27.8,11111222
BP,ioos:station:wmo:42907:1,2021-09-01T22:14:00Z,28.4401,-88.2729,17.4,27.8,11111222
BP,ioos:station:wmo:42907:1,2021-09-01T22:24:00Z,28.4401,-88.2729,17.3,27.8,11111222
BP,ioos:station:wmo:42907:1,2021-09-01T22:34:00Z,28.4401,-88.2729,17.1,27.8,11111222
BP,ioos:station:wmo:42907:1,2021-09-01T23:54:00Z,28.4401,-88.2729,17.2,27.9,11111222
BP,ioos:station:wmo:42907:1,2021-09-02T00:04:00Z,28.4401,-88.2729,17.2,27.9,11111222
BP,ioos:station:wmo:42907:1,2021-09-02T00:14:00Z,28.4401,-88.2729,17.2,27.9,11111222
BP,ioos:station:wmo:42907:1,2021-09-02T00:24:00Z,28.4401,-88.2729,17.2,27.9,11111222
BP,ioos:station:wmo:42907:1,2021-09-02T00:34:00Z,28.4401,-88.2729,17.1,28.0,11111222
BP,ioos:station:wmo:42907:1,2021-09-02T00:44:00Z,28.4401,-88.2729,17.1,28.0,11111222
BP,ioos:station:wmo:42907:1,2021-09-02T00:54:00Z,28.4401,-88.2729,17.1,28.0,11111222
BP,ioos:station:wmo:42907:1,2021-09-08T17:42:00Z,28.4401,-88.2729,17.1,30.0,11111222
BP,ioos:station:wmo:42907:1,2021-09-08T17:52:00Z,28.4401,-88.2729,17.1,30.0,11111222
BP,ioos:station:wmo:42907:1,2021-09-08T18:02:00Z,28.4401,-88.2729,17.1,30.0,11111222
BP,ioos:station:wmo:42907:1,2021-09-08T18:12:00Z,28.4401,-88.2729,17.1,30.0,11111222
BP,ioos:station:wmo:42907:1,2021-09-08T18:22:00Z,28.4401,-88.2729,16.9,30.0,11111222
BP,ioos:station:wmo:42907:1,2021-09-08T18:32:00Z,28.4401,-88.2729,16.8,30.0,11111222
BP,ioos:station:wmo:42907:1,2021-09-08T18:42:00Z,28.4401,-88.2729,16.9,30.0,11111222
BP,ioos:station:wmo:42907:1,2021-09-08T18:52:00Z,28.4401,-88.2729,16.9,30.0,11111222
BP,ioos:station:wmo:42907:1,2021-09-08T19:02:00Z,28.4401,-88.2729,17.1,30.0,11111222
BP,ioos:station:wmo:42907:1,2021-09-08T19:12:00Z,28.4401,-88.2729,17.1,30.0,11111222
BP,ioos:station:wmo:42907:1,2021-09-08T19:22:00Z,28.4401,-88.2729,17.1,30.1,11111222
BP,ioos:station:wmo:42907:1,2021-09-08T19:32:00Z,28.4401,-88.2729,17.1,30.0,11111222
BP,ioos:station:wmo:42907:1,2021-09-08T19:42:00Z,28.4401,-88.2729,17.1,30.0,11111222
BP,ioos:station:wmo:42907:1,2021-09-08T19:52:00Z,28.4401,-88.2729,17.1,30.0,11111222
BP,ioos:station:wmo:42907:1,2021-09-08T20:02:00Z,28.4401,-88.2729,17.1,30.1,11111222
BP,ioos:station:wmo:42907:1,2021-09-08T20:12:00Z,28.4401,-88.2729,16.9,30.3,11111222
BP,ioos:station:wmo:42907:1,2021-09-08T20:42:00Z,28.4401,-88.2729,16.9,30.3,11111222
BP,ioos:station:wmo:42907:1,2021-09-08T20:53:00Z,28.4401,-88.2729,17.1,30.5,11111222
BP,ioos:station:wmo:42907:1,2021-09-08T21:03:00Z,28.4401,-88.2729,17.1,30.5,11111222
BP,ioos:station:wmo:42907:1,2021-09-08T21:13:00Z,28.4401,-88.2729,17.0,30.6,11111222
BP,ioos:station:wmo:42907:1,2021-09-08T21:23:00Z,28.4401,-88.2729,17.0,30.6,11111222
BP,ioos:station:wmo:42907:1,2021-09-08T21:33:00Z,28.4401,-88.2729,17.0,30.6,11111222
BP,ioos:station:wmo:42907:1,2021-09-08T21:43:00Z,28.4401,-88.2729,17.0,30.6,11111222
BP,ioos:station:wmo:42907:1,2021-09-08T21:53:00Z,28.4401,-88.2729,17.0,30.7,11111222
BP,ioos:station:wmo:42907:1,2021-09-08T22:03:00Z,28.4401,-88.2729,17.0,30.7,11111222
BP,ioos:station:wmo:42907:1,2021-09-08T22:13:00Z,28.4401,-88.2729,17.0,30.7,11111222
BP,ioos:station:wmo:42907:1,2021-09-08T22:23:00Z,28.4401,-88.2729,17.0,30.7,11111222
BP,ioos:station:wmo:42907:1,2021-09-08T22:33:00Z,28.4401,-88.2729,17.1,30.7,11111222
BP,ioos:station:wmo:42907:1,2021-09-08T22:43:00Z,28.4401,-88.2729,17.1,30.7,11111222
BP,ioos:station:wmo:42907:1,2021-09-08T22:53:00Z,28.4401,-88.2729,17.1,30.7,11111222
BP,ioos:station:wmo:42907:1,2021-09-08T23:03:00Z,28.4401,-88.2729,17.2,30.7,11111222
BP,ioos:station:wmo:42907:1,2021-09-08T23:13:00Z,28.4401,-88.2729,17.1,30.7,11111222
BP,ioos:station:wmo:42907:1,2021-09-08T23:23:00Z,28.4401,-88.2729,17.1,30.7,11111222
BP,ioos:station:wmo:42907:1,2021-09-08T23:33:00Z,28.4401,-88.2729,17.0,30.7,11111222
BP,ioos:station:wmo:42907:1,2021-09-08T23:43:00Z,28.4401,-88.2729,17.0,30.6,11111222
BP,ioos:station:wmo:42907:1,2021-09-08T23:53:00Z,28.4401,-88.2729,17.0,30.6,11111222
BP,ioos:station:wmo:42907:1,2021-09-09T00:03:00Z,28.4401,-88.2729,17.1,30.6,11111222
BP,ioos:station:wmo:42907:1,2021-09-09T00:13:00Z,28.4401,-88.2729,17.1,30.6,11111222
BP,ioos:station:wmo:42907:1,2021-09-09T00:23:00Z,28.4401,-88.2729,17.1,30.6,11111222
BP,ioos:station:wmo:42907:1,2021-09-09T00:33:00Z,28.4401,-88.2729,17.1,30.6,11111222
BP,ioos:station:wmo:42907:1,2021-09-09T00:43:00Z,28.4401,-88.2729,17.1,30.6,11111222
BP,ioos:station:wmo:42907:1,2021-09-09T00:53:00Z,28.4401,-88.2729,17.1,30.6,11111222
BP,ioos:station:wmo:42907:1,2021-09-09T01:03:00Z,28.4401,-88.2729,17.1,30.6,11111222
BP,ioos:station:wmo:42907:1,2021-09-09T01:13:00Z,28.4401,-88.2729,17.1,30.6,11111222
BP,ioos:station:wmo:42907:1,2021-09-09T01:23:00Z,28.4401,-88.2729,17.1,30.6,11111222
BP,ioos:station:wmo:42907:1,2021-09-09T01:33:00Z,28.4401,-88.2729,17.1,30.7,11111222
BP,ioos:station:wmo:42907:1,2021-09-09T01:43:00Z,28.4401,-88.2729,17.1,30.7,11111222
BP,ioos:station:wmo:42907:1,2021-09-09T01:53:00Z,28.4401,-88.2729,17.0,30.8,11111222
BP,ioos:station:wmo:42907:1,2021-09-09T02:03:00Z,28.4401,-88.2729,17.0,30.8,11111222
BP,ioos:station:wmo:42907:1,2021-09-09T02:13:00Z,28.4401,-88.2729,17.0,30.8,11111222
BP,ioos:station:wmo:42907:1,2021-09-09T02:23:00Z,28.4401,-88.2729,17.0,30.7,11111222
BP,ioos:station:wmo:42907:1,2021-09-09T02:33:00Z,28.4401,-88.2729,17.0,30.6,11111222
BP,ioos:station:wmo:42907:1,2021-09-09T02:43:00Z,28.4401,-88.2729,17.0,30.6,11111222
BP,ioos:station:wmo:42907:1,2021-09-09T02:53:00Z,28.4401,-88.2729,17.0,30.7,11111222
BP,ioos:station:wmo:42907:1,2021-09-09T03:03:00Z,28.4401,-88.2729,17.0,30.7,11111222
BP,ioos:station:wmo:42907:1,2021-09-09T03:13:00Z,28.4401,-88.2729,17.0,30.7,11111222
BP,ioos:station:wmo:42907:1,2021-09-09T03:23:00Z,28.4401,-88.2729,17.0,30.7,11111222
BP,ioos:station:wmo:42907:1,2021-09-09T03:33:00Z,28.4401,-88.2729,17.1,30.7,11111222
BP,ioos:station:wmo:42907:1,2021-09-09T03:43:00Z,28.4401,-88.2729,17.2,30.7,11111222
BP,ioos:station:wmo:42907:1,2021-09-09T03:53:00Z,28.4401,-88.2729,16.9,30.7,11111222
BP,ioos:station:wmo:42907:1,2021-09-09T04:03:00Z,28.4401,-88.2729,17.0,30.7,11111222
BP,ioos:station:wmo:42907:1,2021-09-09T04:14:00Z,28.4401,-88.2729,17.0,30.8,11111222
BP,ioos:station:wmo:42907:1,2021-09-09T04:24:00Z,28.4401,-88.2729,17.0,30.8,11111222
BP,ioos:station:wmo:42907:1,2021-09-09T04:34:00Z,28.4401,-88.2729,17.0,30.8,11111222
BP,ioos:station:wmo:42907:1,2021-09-09T04:44:00Z,28.4401,-88.2729,17.1,30.7,11111222
BP,ioos:station:wmo:42907:1,2021-09-09T04:54:00Z,28.4401,-88.2729,17.1,30.8,11111222
BP,ioos:station:wmo:42907:1,2021-09-09T05:04:00Z,28.4401,-88.2729,17.1,30.7,11111222
BP,ioos:station:wmo:42907:1,2021-09-09T05:14:00Z,28.4401,-88.2729,17.1,30.8,11111222
BP,ioos:station:wmo:42907:1,2021-09-09T05:24:00Z,28.4401,-88.2729,17.1,30.7,11111222
BP,ioos:station:wmo:42907:1,2021-09-09T05:34:00Z,28.4401,-88.2729,17.1,30.6,11111222
BP,ioos:station:wmo:42907:1,2021-09-09T05:44:00Z,28.4401,-88.2729,17.2,30.7,11111222
BP,ioos:station:wmo:42907:1,2021-09-09T05:54:00Z,28.4401,-88.2729,17.2,30.8,11111222
BP,ioos:station:wmo:42907:1,2021-09-09T06:04:00Z,28.4401,-88.2729,17.0,30.8,11111222
BP,ioos:station:wmo:42907:1,2021-09-09T06:14:00Z,28.4401,-88.2729,17.0,30.8,11111222
BP,ioos:station:wmo:42907:1,2021-09-09T06:24:00Z,28.4401,-88.2729,17.0,30.8,11111222
BP,ioos:station:wmo:42907:1,2021-09-09T06:34:00Z,28.4401,-88.2729,17.1,30.8,11111222
BP,ioos:station:wmo:42907:1,2021-09-09T06:44:00Z,28.4401,-88.2729,17.1,30.7,11111222
BP,ioos:station:wmo:42907:1,2021-09-09T06:54:00Z,28.4401,-88.2729,17.1,30.7,11111222
BP,ioos:station:wmo:42907:1,2021-09-09T07:04:00Z,28.4401,-88.2729,17.1,30.6,11111222
BP,ioos:station:wmo:42907:1,2021-09-09T07:14:00Z,28.4401,-88.2729,17.1,30.5,11111222
BP,ioos:station:wmo:42907:1,2021-09-09T07:24:00Z,28.4401,-88.2729,17.1,30.4,11111222
BP,ioos:station:wmo:42907:1,2021-09-09T07:34:00Z,28.4401,-88.2729,17.0,30.4,11111222
BP,ioos:station:wmo:42907:1,2021-09-09T07:44:00Z,28.4401,-88.2729,17.0,30.4,11111222
BP,ioos:station:wmo:42907:1,2021-09-09T07:54:00Z,28.4401,-88.2729,17.0,30.6,11111222
BP,ioos:station:wmo:42907:1,2021-09-09T08:04:00Z,28.4401,-88.2729,17.0,30.5,11111222
BP,ioos:station:wmo:42907:1,2021-09-09T08:14:00Z,28.4401,-88.2729,17.0,30.5,11111222
BP,ioos:station:wmo:42907:1,2021-09-09T08:24:00Z,28.4401,-88.2729,17.0,30.5,11111222
BP,ioos:station:wmo:42907:1,2021-09-09T08:34:00Z,28.4401,-88.2729,17.0,30.5,11111222
BP,ioos:station:wmo:42907:1,2021-09-09T08:44:00Z,28.4401,-88.2729,17.0,30.5,11111222
BP,ioos:station:wmo:42907:1,2021-09-09T08:54:00Z,28.4401,-88.2729,17.0,30.6,11111222
BP,ioos:station:wmo:42907:1,2021-09-09T09:04:00Z,28.4401,-88.2729,16.9,30.6,11111222
BP,ioos:station:wmo:42907:1,2021-09-09T09:14:00Z,28.4401,-88.2729,16.9,30.7,11111222
BP,ioos:station:wmo:42907:1,2021-09-09T09:24:00Z,28.4401,-88.2729,16.9,30.6,11111222
BP,ioos:station:wmo:42907:1,2021-09-09T09:34:00Z,28.4401,-88.2729,16.9,30.5,11111222
BP,ioos:station:wmo:42907:1,2021-09-09T09:44:00Z,28.4401,-88.2729,16.9,30.6,11111222
BP,ioos:station:wmo:42907:1,2021-09-09T09:54:00Z,28.4401,-88.2729,16.9,30.6,11111222
BP,ioos:station:wmo:42907:1,2021-09-09T10:04:00Z,28.4401,-88.2729,16.9,30.3,11111222
BP,ioos:station:wmo:42907:1,2021-09-09T10:14:00Z,28.4401,-88.2729,17.0,30.3,11111222
BP,ioos:station:wmo:42907:1,2021-09-09T10:24:00Z,28.4401,-88.2729,17.0,30.2,11111222
BP,ioos:station:wmo:42907:1,2021-09-09T10:34:00Z,28.4401,-88.2729,16.9,30.2,11111222
BP,ioos:station:wmo:42907:1,2021-09-09T10:44:00Z,28.4401,-88.2729,16.9,30.2,11111222
BP,ioos:station:wmo:42907:1,2021-09-09T10:54:00Z,28.4401,-88.2729,16.9,30.2,11111222
BP,ioos:station:wmo:42907:1,2021-09-09T11:04:00Z,28.4401,-88.2729,16.9,30.2,11111222
BP,ioos:station:wmo:42907:1,2021-09-09T11:14:00Z,28.4401,-88.2729,16.9,30.2,11111222
BP,ioos:station:wmo:42907:1,2021-09-09T11:24:00Z,28.4401,-88.2729,17.1,30.2,11111222
BP,ioos:station:wmo:42907:1,2021-09-09T11:35:00Z,28.4401,-88.2729,17.2,30.3,11111222
BP,ioos:station:wmo:42907:1,2021-09-09T11:45:00Z,28.4401,-88.2729,17.3,30.3,11111222
BP,ioos:station:wmo:42907:1,2021-09-09T11:55:00Z,28.4401,-88.2729,17.3,30.5,11111222
BP,ioos:station:wmo:42907:1,2021-09-09T12:05:00Z,28.4401,-88.2729,17.2,30.3,11111222
BP,ioos:station:wmo:42907:1,2021-09-09T12:15:00Z,28.4401,-88.2729,17.2,30.3,11111222
BP,ioos:station:wmo:42907:1,2021-09-09T12:25:00Z,28.4401,-88.2729,17.2,30.5,11111222
BP,ioos:station:wmo:42907:1,2021-09-09T12:35:00Z,28.4401,-88.2729,17.2,30.4,11111222
BP,ioos:station:wmo:42907:1,2021-09-09T12:45:00Z,28.4401,-88.2729,17.4,30.4,11111222
BP,ioos:station:wmo:42907:1,2021-09-09T12:55:00Z,28.4401,-88.2729,17.3,30.4,11111222
BP,ioos:station:wmo:42907:1,2021-09-09T13:05:00Z,28.4401,-88.2729,17.3,30.4,11111222
BP,ioos:station:wmo:42907:1,2021-09-09T13:15:00Z,28.4401,-88.2729,17.3,30.3,11111222
BP,ioos:station:wmo:42907:1,2021-09-09T13:25:00Z,28.4401,-88.2729,17.2,30.2,11111222
BP,ioos:station:wmo:42907:1,2021-09-09T13:35:00Z,28.4401,-88.2729,17.2,30.2,11111222
BP,ioos:station:wmo:42907:1,2021-09-09T13:45:00Z,28.4401,-88.2729,17.2,30.2,11111222
BP,ioos:station:wmo:42907:1,2021-09-09T13:55:00Z,28.4401,-88.2729,17.3,30.2,11111222
BP,ioos:station:wmo:42907:1,2021-09-09T14:05:00Z,28.4401,-88.2729,17.2,30.2,11111222
BP,ioos:station:wmo:42907:1,2021-09-09T14:15:00Z,28.4401,-88.2729,17.3,30.3,11111222
BP,ioos:station:wmo:42907:1,2021-09-09T14:25:00Z,28.4401,-88.2729,17.2,30.3,11111222
BP,ioos:station:wmo:42907:1,2021-09-09T14:35:00Z,28.4401,-88.2729,17.1,30.3,11111222
BP,ioos:station:wmo:42907:1,2021-09-09T14:45:00Z,28.4401,-88.2729,17.2,30.3,11111222
BP,ioos:station:wmo:42907:1,2021-09-09T14:55:00Z,28.4401,-88.2729,17.3,30.3,11111222
BP,ioos:station:wmo:42907:1,2021-09-09T15:05:00Z,28.4401,-88.2729,17.2,30.2,11111222
BP,ioos:station:wmo:42907:1,2021-09-09T15:15:00Z,28.4401,-88.2729,17.2,30.3,11111222
BP,ioos:station:wmo:42907:1,2021-09-09T15:25:00Z,28.4401,-88.2729,17.2,30.4,11111222
BP,ioos:station:wmo:42907:1,2021-09-09T15:35:00Z,28.4401,-88.2729,17.2,30.4,11111222
BP,ioos:station:wmo:42907:1,2021-09-09T15:45:00Z,28.4401,-88.2729,17.3,30.4,11111222
BP,ioos:station:wmo:42907:1,2021-09-09T15:55:00Z,28.4401,-88.2729,17.3,30.7,11111222
BP,ioos:station:wmo:42907:1,2021-09-09T16:05:00Z,28.4401,-88.2729,17.2,30.8,11111222
BP,ioos:station:wmo:42907:1,2021-09-09T16:15:00Z,28.4401,-88.2729,17.0,30.8,11111222
BP,ioos:station:wmo:42907:1,2021-09-09T16:25:00Z,28.4401,-88.2729,17.1,30.9,11111222
BP,ioos:station:wmo:42907:1,2021-09-09T16:35:00Z,28.4401,-88.2729,17.2,30.9,11111222
BP,ioos:station:wmo:42907:1,2021-09-09T16:45:00Z,28.4401,-88.2729,17.1,30.9,11111222
BP,ioos:station:wmo:42907:1,2021-09-09T16:55:00Z,28.4401,-88.2729,17.0,30.9,11111222
BP,ioos:station:wmo:42907:1,2021-09-09T17:05:00Z,28.4401,-88.2729,17.0,30.9,11111222
BP,ioos:station:wmo:42907:1,2021-09-09T17:15:00Z,28.4401,-88.2729,17.0,30.9,11111222
BP,ioos:station:wmo:42907:1,2021-09-09T17:25:00Z,28.4401,-88.2729,17.0,30.9,11111222
BP,ioos:station:wmo:42907:1,2021-09-09T17:35:00Z,28.4401,-88.2729,17.0,30.9,11111222
BP,ioos:station:wmo:42907:1,2021-09-09T17:45:00Z,28.4401,-88.2729,17.0,30.9,11111222
BP,ioos:station:wmo:42907:1,2021-09-09T17:55:00Z,28.4401,-88.2729,16.9,30.9,11111222
BP,ioos:station:wmo:42907:1,2021-09-09T18:05:00Z,28.4401,-88.2729,17.0,30.9,11111222
BP,ioos:station:wmo:42907:1,2021-09-09T18:15:00Z,28.4401,-88.2729,16.9,30.9,11111222
BP,ioos:station:wmo:42907:1,2021-09-09T18:25:00Z,28.4401,-88.2729,17.1,30.7,11111222
BP,ioos:station:wmo:42907:1,2021-09-09T18:35:00Z,28.4401,-88.2729,17.2,30.7,11111222
BP,ioos:station:wmo:42907:1,2021-09-09T18:45:00Z,28.4401,-88.2729,17.2,30.6,11111222
BP,ioos:station:wmo:42907:1,2021-09-09T18:56:00Z,28.4401,-88.2729,17.2,30.6,11111222
BP,ioos:station:wmo:42907:1,2021-09-09T19:06:00Z,28.4401,-88.2729,17.2,30.2,11111222
BP,ioos:station:wmo:42907:1,2021-09-09T19:16:00Z,28.4401,-88.2729,17.2,30.0,11111222
BP,ioos:station:wmo:42907:1,2021-09-09T19:26:00Z,28.4401,-88.2729,17.3,29.9,11111222
BP,ioos:station:wmo:42907:1,2021-09-09T19:36:00Z,28.4401,-88.2729,17.3,29.9,11111222
BP,ioos:station:wmo:42907:1,2021-09-09T19:46:00Z,28.4401,-88.2729,17.3,30.4,11111222
BP,ioos:station:wmo:42907:1,2021-09-09T19:56:00Z,28.4401,-88.2729,17.3,30.6,11111222
BP,ioos:station:wmo:42907:1,2021-09-09T20:06:00Z,28.4401,-88.2729,17.2,30.7,11111222
BP,ioos:station:wmo:42907:1,2021-09-09T20:16:00Z,28.4401,-88.2729,17.3,30.8,11111222
BP,ioos:station:wmo:42907:1,2021-09-09T20:26:00Z,28.4401,-88.2729,17.3,30.7,11111222
BP,ioos:station:wmo:42907:1,2021-09-09T20:36:00Z,28.4401,-88.2729,17.3,30.7,11111222
BP,ioos:station:wmo:42907:1,2021-09-09T20:46:00Z,28.4401,-88.2729,17.4,30.8,11111222
BP,ioos:station:wmo:42907:1,2021-09-09T20:56:00Z,28.4401,-88.2729,17.4,30.8,11111222
BP,ioos:station:wmo:42907:1,2021-09-09T21:06:00Z,28.4401,-88.2729,17.4,30.9,11111222
BP,ioos:station:wmo:42907:1,2021-09-09T21:16:00Z,28.4401,-88.2729,17.4,30.9,11111222
BP,ioos:station:wmo:42907:1,2021-09-09T21:26:00Z,28.4401,-88.2729,17.3,30.9,11111222
BP,ioos:station:wmo:42907:1,2021-09-09T21:36:00Z,28.4401,-88.2729,17.2,31.0,11111222
BP,ioos:station:wmo:42907:1,2021-09-09T21:46:00Z,28.4401,-88.2729,17.2,30.9,11111222
BP,ioos:station:wmo:42907:1,2021-09-09T21:56:00Z,28.4401,-88.2729,17.1,30.9,11111222
BP,ioos:station:wmo:42907:1,2021-09-09T22:06:00Z,28.4401,-88.2729,17.0,30.9,11111222
BP,ioos:station:wmo:42907:1,2021-09-09T22:16:00Z,28.4401,-88.2729,17.0,30.8,11111222
BP,ioos:station:wmo:42907:1,2021-09-09T22:26:00Z,28.4401,-88.2729,17.1,30.7,11111222
BP,ioos:station:wmo:42907:1,2021-09-09T22:36:00Z,28.4401,-88.2729,17.1,30.8,11111222
BP,ioos:station:wmo:42907:1,2021-09-09T22:46:00Z,28.4401,-88.2729,17.2,30.9,11111222
BP,ioos:station:wmo:42907:1,2021-09-09T22:56:00Z,28.4401,-88.2729,17.3,30.9,11111222
BP,ioos:station:wmo:42907:1,2021-09-09T23:06:00Z,28.4401,-88.2729,17.2,30.9,11111222
BP,ioos:station:wmo:42907:1,2021-09-09T23:16:00Z,28.4401,-88.2729,17.4,30.9,11111222
BP,ioos:station:wmo:42907:1,2021-09-09T23:26:00Z,28.4401,-88.2729,17.3,30.9,11111222
BP,ioos:station:wmo:42907:1,2021-09-09T23:36:00Z,28.4401,-88.2729,17.1,30.9,11111222
BP,ioos:station:wmo:42907:1,2021-09-09T23:46:00Z,28.4401,-88.2729,17.0,30.9,11111222
BP,ioos:station:wmo:42907:1,2021-09-09T23:56:00Z,28.4401,-88.2729,16.9,30.9,11111222
BP,ioos:station:wmo:42907:1,2021-09-10T00:06:00Z,28.4401,-88.2729,16.9,30.9,11111222
BP,ioos:station:wmo:42907:1,2021-09-10T00:16:00Z,28.4401,-88.2729,17.0,30.9,11111222
BP,ioos:station:wmo:42907:1,2021-09-10T00:26:00Z,28.4401,-88.2729,17.0,30.9,11111222
BP,ioos:station:wmo:42907:1,2021-09-10T00:36:00Z,28.4401,-88.2729,17.0,30.9,11111222
BP,ioos:station:wmo:42907:1,2021-09-10T00:46:00Z,28.4401,-88.2729,17.0,30.9,11111222
BP,ioos:station:wmo:42907:1,2021-09-10T00:56:00Z,28.4401,-88.2729,17.0,30.9,11111222
BP,ioos:station:wmo:42907:1,2021-09-10T01:06:00Z,28.4401,-88.2729,17.1,30.9,11111222
BP,ioos:station:wmo:42907:1,2021-09-10T01:16:00Z,28.4401,-88.2729,17.1,31.0,11111222
BP,ioos:station:wmo:42907:1,2021-09-10T01:26:00Z,28.4401,-88.2729,17.1,31.0,11111222
BP,ioos:station:wmo:42907:1,2021-09-10T01:36:00Z,28.4401,-88.2729,17.1,31.0,11111222
BP,ioos:station:wmo:42907:1,2021-09-10T01:46:00Z,28.4401,-88.2729,17.2,31.0,11111222
BP,ioos:station:wmo:42907:1,2021-09-10T01:56:00Z,28.4401,-88.2729,17.2,30.9,11111222
BP,ioos:station:wmo:42907:1,2021-09-10T02:07:00Z,28.4401,-88.2729,17.2,30.9,11111222
BP,ioos:station:wmo:42907:1,2021-09-10T02:17:00Z,28.4401,-88.2729,17.2,30.9,11111222
BP,ioos:station:wmo:42907:1,2021-09-10T02:27:00Z,28.4401,-88.2729,17.2,30.9,11111222
BP,ioos:station:wmo:42907:1,2021-09-10T02:37:00Z,28.4401,-88.2729,17.3,30.9,11111222
BP,ioos:station:wmo:42907:1,2021-09-10T02:47:00Z,28.4401,-88.2729,17.2,30.9,11111222
BP,ioos:station:wmo:42907:1,2021-09-10T02:57:00Z,28.4401,-88.2729,17.1,30.9,11111222
BP,ioos:station:wmo:42907:1,2021-09-10T03:07:00Z,28.4401,-88.2729,17.3,30.9,11111222
BP,ioos:station:wmo:42907:1,2021-09-10T03:17:00Z,28.4401,-88.2729,17.3,31.0,11111222
BP,ioos:station:wmo:42907:1,2021-09-10T03:27:00Z,28.4401,-88.2729,17.2,31.0,11111222
BP,ioos:station:wmo:42907:1,2021-09-10T03:37:00Z,28.4401,-88.2729,17.2,31.1,11111222
BP,ioos:station:wmo:42907:1,2021-09-10T03:47:00Z,28.4401,-88.2729,17.2,31.1,11111222
BP,ioos:station:wmo:42907:1,2021-09-10T03:57:00Z,28.4401,-88.2729,17.1,31.1,11111222
BP,ioos:station:wmo:42907:1,2021-09-10T04:07:00Z,28.4401,-88.2729,17.1,31.1,11111222
BP,ioos:station:wmo:42907:1,2021-09-10T04:17:00Z,28.4401,-88.2729,17.1,31.0,11111222
BP,ioos:station:wmo:42907:1,2021-09-10T04:27:00Z,28.4401,-88.2729,17.2,31.0,11111222
BP,ioos:station:wmo:42907:1,2021-09-10T04:37:00Z,28.4401,-88.2729,17.1,31.1,11111222
BP,ioos:station:wmo:42907:1,2021-09-10T04:47:00Z,28.4401,-88.2729,17.2,31.1,11111222
BP,ioos:station:wmo:42907:1,2021-09-10T04:57:00Z,28.4401,-88.2729,17.2,31.1,11111222
BP,ioos:station:wmo:42907:1,2021-09-10T05:07:00Z,28.4401,-88.2729,17.2,31.1,11111222
BP,ioos:station:wmo:42907:1,2021-09-10T05:17:00Z,28.4401,-88.2729,17.2,31.0,11111222
BP,ioos:station:wmo:42907:1,2021-09-10T05:27:00Z,28.4401,-88.2729,17.2,30.9,11111222
BP,ioos:station:wmo:42907:1,2021-09-10T05:37:00Z,28.4401,-88.2729,17.2,30.9,11111222
BP,ioos:station:wmo:42907:1,2021-09-10T05:47:00Z,28.4401,-88.2729,17.2,30.9,11111222
BP,ioos:station:wmo:42907:1,2021-09-10T05:57:00Z,28.4401,-88.2729,17.2,31.0,11111222
BP,ioos:station:wmo:42907:1,2021-09-10T06:07:00Z,28.4401,-88.2729,17.2,31.0,11111222
BP,ioos:station:wmo:42907:1,2021-09-10T06:17:00Z,28.4401,-88.2729,17.3,31.0,11111222
BP,ioos:station:wmo:42907:1,2021-09-10T06:27:00Z,28.4401,-88.2729,17.3,31.0,11111222